Weather History for Beaumont, TX

Change the Weather History Date:

Wednesday, January 8, 2014

  Actual Average Record
Temperature  
Mean Temperature 45 °F 52 °F  
Max Temperature 51 °F 62 °F 79 °F (2012)
Min Temperature 38 °F 43 °F 19 °F (1976)
Degree Days  
Heating Degree Days 20 13  
Month to date heating degree days 167 104  
Since 1 July heating degree days 822 654  
Cooling Degree Days 0 0  
Month to date cooling degree days 0 0  
Year to date cooling degree days 0 0  
Moisture  
Dew Point 38 °F    
Average Humidity 75    
Maximum Humidity 86    
Minimum Humidity 64    
Precipitation  
Precipitation T in 0.19 in 2.24 in (1992)
Month to date precipitation 0.40 1.44  
Year to date precipitation 0.40 1.44  
Snow  
Snow 0.00 in 0.00 in 0.00 in ()
Month to date snowfall 0.0 0.0  
Since 1 July snowfall 0.0 T  
Snow Depth 0.00 in    
Sea Level Pressure  
Sea Level Pressure 30.31 in    
Wind  
Wind Speed 12 mph (East)    
Max Wind Speed 21 mph    
Max Gust Speed 25 mph    
Visibility 10 miles    
Events      
T = Trace of Precipitation, MM = Missing Value Source: NWS Daily Summary

Daily Weather History Graph

Daily Weather History Graph

Search for Another Location

Airport:

Trip Planner

Search our weather history database for the weather conditions in past years. The results will help you decide how hot, cold, wet, or windy it might be!

Date:

Astronomy

Jan. 08, 2014 Rise Set
Actual Time 7:12 AM CST 5:32 PM CST
Civil Twilight 6:46 AM CST 5:59 PM CST
Nautical Twilight 6:17 AM CST 6:28 PM CST
Astronomical Twilight 5:48 AM CST 6:57 PM CST
Moon 12:12 PM CST (1/8) 12:34 AM CST (1/8)
Length of Visible Light 11h 12m
Length of Day
10h 20m
First Quarter, 56% of the Moon is Illuminated
Jan 8
First Quarter
Jan 15
Full
Jan 23
Last Quarter
Jan 30
New
Feb 6
First Quarter

Hourly Weather History & Observations

Time (CST) Temp. Windchill Dew Point Humidity Pressure Visibility Wind Dir Wind Speed Gust Speed Precip Events Conditions
12:53 AM 37.9 °F 30.5 °F 28.0 °F 68% 30.43 in 10.0 mi East 11.5 mph - N/A   Overcast
1:53 AM 39.0 °F 32.3 °F 28.9 °F 67% 30.40 in 10.0 mi East 10.4 mph - N/A   Overcast
2:53 AM 39.0 °F 32.8 °F 30.0 °F 70% 30.40 in 10.0 mi East 9.2 mph - N/A   Overcast
3:53 AM 39.9 °F 34.5 °F 30.9 °F 70% 30.38 in 10.0 mi East 8.1 mph - N/A   Overcast
4:53 AM 39.9 °F 33.9 °F 32.0 °F 73% 30.36 in 10.0 mi East 9.2 mph - N/A   Overcast
5:53 AM 39.9 °F 33.9 °F 32.0 °F 73% 30.35 in 10.0 mi East 9.2 mph - N/A   Overcast
6:53 AM 41.0 °F 34.7 °F 33.1 °F 73% 30.35 in 10.0 mi East 10.4 mph - N/A   Overcast
7:53 AM 42.1 °F 35.2 °F 34.0 °F 73% 30.35 in 10.0 mi East 12.7 mph - N/A   Overcast
8:53 AM 42.1 °F 35.7 °F 34.0 °F 73% 30.37 in 10.0 mi East 11.5 mph - N/A   Overcast
9:53 AM 43.0 °F 36.8 °F 34.0 °F 71% 30.39 in 10.0 mi East 11.5 mph - N/A   Overcast
10:53 AM 44.1 °F 38.1 °F 35.1 °F 71% 30.38 in 10.0 mi East 11.5 mph - N/A   Overcast
11:53 AM 45.0 °F 38.5 °F 35.1 °F 68% 30.34 in 10.0 mi East 13.8 mph - N/A   Overcast
12:53 PM 48.0 °F - 37.0 °F 66% 30.29 in 10.0 mi East 16.1 mph - N/A   Overcast
1:53 PM 48.9 °F - 37.9 °F 66% 30.28 in 10.0 mi East 13.8 mph - N/A   Overcast
2:53 PM 50.0 °F - 41.0 °F 71% 30.27 in 10.0 mi East 11.5 mph 25.3 mph N/A   Mostly Cloudy
3:00 PM 48.2 °F - 41.0 °F 76% 30.27 in 10.0 mi ESE 17.3 mph 25.3 mph N/A   Overcast
3:51 PM 48.2 °F - 42.8 °F 82% 30.27 in 10.0 mi East 12.7 mph - N/A   Overcast
3:53 PM 48.9 °F - 42.1 °F 77% 30.27 in 10.0 mi East 13.8 mph - N/A   Overcast
4:53 PM 48.0 °F - 42.1 °F 80% 30.26 in 10.0 mi East 16.1 mph - 0.00 in   Overcast
5:43 PM 46.4 °F 39.2 °F 42.8 °F 87% 30.23 in 10.0 mi ESE 18.4 mph - N/A   Overcast
5:53 PM 46.9 °F - 42.1 °F 83% 30.23 in 10.0 mi East 16.1 mph - N/A   Overcast
6:53 PM 46.9 °F - 42.1 °F 83% 30.26 in 10.0 mi East 15.0 mph - N/A   Overcast
7:53 PM 46.9 °F - 42.1 °F 83% 30.27 in 10.0 mi East 13.8 mph - N/A   Overcast
8:53 PM 48.0 °F - 42.1 °F 80% 30.27 in 10.0 mi East 10.4 mph - N/A   Overcast
9:53 PM 48.0 °F - 43.0 °F 83% 30.27 in 10.0 mi East 11.5 mph - N/A   Overcast
10:53 PM 48.0 °F - 44.1 °F 86% 30.27 in 10.0 mi East 9.2 mph - N/A   Overcast
11:53 PM 48.0 °F - 44.1 °F 86% 30.25 in 10.0 mi East 10.4 mph - N/A   Overcast